Location: Novo Ouro Preto
(19.8840°S, 43.9844°W)
Time: 09:31:42
(UTC+00:00)

Cosmos 1980 - Pass Details

Date: 18 September 2020
Orbit: 837 x 849 km, 71.0° (Epoch: 21 October)

Event Time Altitude Azimuth Distance (km) Brightness Sun altitude
Rises 21:22:07 0° 342° (NNW) 3,390 7.1 -8.1°
Reaches altitude 10° 21:24:33 10° 341° (NNW) 2,460 6.4 -8.7°
Maximum altitude 21:30:13 82° 253° (WSW) 859 3.8 -10.0°
Drops below altitude 10° 21:35:55 10° 165° (SSE) 2,477 6.0 -11.3°
Sets 21:38:22 0° 164° (SSE) 3,415 6.7 -11.9°
